This demonstration page uses our WeatherBlox Daily Observations layout. Learn more.

Hourly Observations for July 16, 2020

Temp ( °F °C ) Dew Point ( °F °C ) Humidity (%) Winds ( mph kmh ) Pressure ( in mb ) Visibility ( mi km ) Precip ( " mm )
12:15 am 00:15 Mostly Cloudy 79 26 70 21 74 74 SSE 12 19 30.17 1022 10 16.0934 0 0
12:35 am 00:35 Cloudy 79 26 70 21 74 74 SSE 7 11 30.19 1022 10 16.0934 0 0
12:55 am 00:55 Cloudy 79 26 70 21 74 74 SSE 9 15 30.19 1022 10 16.0934 0 0
1:35 am 01:35 Cloudy 79 26 70 21 74 74 S 12 19 30.21 1023 10 16.0934 0 0
1:55 am 01:55 Cloudy 77 25 72 22 83 83 S 9 15 30.21 1023 10 16.0934 0 0
2:15 am 02:15 Cloudy 77 25 72 22 83 83 SSE 7 11 30.2 1023 10 16.0934 0 0
2:35 am 02:35 Mostly Cloudy 77 25 72 22 83 83 SSE 6 9 30.2 1023 10 16.0934 0 0
2:55 am 02:55 Cloudy 77 25 72 22 83 83 SSE 9 15 30.19 1022 10 16.0934 0 0
3:15 am 03:15 Mostly Cloudy 75 24 72 22 89 89 SE 9 15 30.19 1022 10 16.0934 0 0
3:35 am 03:35 Partly Cloudy 75 24 72 22 89 89 SE 9 15 30.19 1022 10 16.0934 0 0
3:55 am 03:55 Partly Cloudy 75 24 72 22 89 89 SE 8 13 30.2 1023 10 16.0934 0 0
4:15 am 04:15 Mostly Cloudy 73 23 72 22 94 94 SE 7 11 30.19 1022 10 16.0934 0 0
4:35 am 04:35 Mostly Cloudy 73 23 72 22 94 94 SE 7 11 30.2 1023 10 16.0934 0 0
5:15 am 05:15 Cloudy 73 23 72 22 94 94 SE 7 11 30.2 1023 10 16.0934 0 0
5:35 am 05:35 Cloudy 73 23 72 22 94 94 SE 6 9 30.21 1023 10 16.0934 0 0
5:55 am 05:55 Cloudy 73 23 72 22 94 94 SE 7 11 30.22 1023 10 16.0934 0 0
6:15 am 06:15 Partly Cloudy 73 23 70 21 89 89 SE 9 15 30.21 1023 10 16.0934 0 0
6:35 am 06:35 Partly Cloudy 73 23 70 21 89 89 SE 8 13 30.21 1023 10 16.0934 0 0
6:55 am 06:55 Sunny 73 23 70 21 89 89 SE 9 15 30.21 1023 10 16.0934 0 0
7:15 am 07:15 Partly Cloudy 75 24 70 21 83 83 SE 9 15 30.22 1023 10 16.0934 0 0
7:35 am 07:35 Mostly Cloudy 75 24 70 21 83 83 SSE 7 11 30.22 1023 10 16.0934 0 0
7:55 am 07:55 Mostly Cloudy 77 25 70 21 79 79 S 9 15 30.22 1024 10 16.0934 0 0
8:15 am 08:15 Cloudy 77 25 70 21 79 79 S 8 13 30.22 1024 10 16.0934 0 0
8:35 am 08:35 Cloudy 77 25 70 21 79 79 SSE 8 13 30.22 1024 10 16.0934 0 0
8:55 am 08:55 Cloudy 77 25 70 21 79 79 S 9 15 30.21 1023 10 16.0934 0 0
9:15 am 09:15 Cloudy 77 25 70 21 79 79 S 8 13 30.22 1024 10 16.0934 0 0
9:35 am 09:35 Cloudy 79 26 68 20 70 70 S 8 13 30.21 1023 10 16.0934 0 0
9:55 am 09:55 Cloudy 79 26 70 21 74 74 S 12 19 30.21 1023 10 16.0934 0 0
10:15 am 10:15 Cloudy 79 26 68 20 70 70 S 10 17 30.21 1023 10 16.0934 0 0
10:35 am 10:35 Cloudy 79 26 70 21 74 74 S 8 13 30.22 1023 10 16.0934 0 0
10:55 am 10:55 Cloudy 79 26 68 20 70 70 SSW 8 13 30.22 1023 10 16.0934 0 0
11:15 am 11:15 Cloudy 81 27 70 21 70 70 SSE 7 11 30.22 1023 10 16.0934 0 0
11:35 am 11:35 Mostly Cloudy 82 28 68 20 62 62 SSE 10 17 30.21 1023 10 16.0934 0 0
11:55 am 11:55 Mostly Cloudy 82 28 68 20 62 62 S 9 15 30.22 1023 10 16.0934 0 0
12:15 pm 12:15 Mostly Cloudy 82 28 68 20 62 62 S 10 17 30.22 1023 10 16.0934 0 0
12:35 pm 12:35 Mostly Cloudy 82 28 68 20 62 62 SSE 9 15 30.22 1023 10 16.0934 0 0
12:55 pm 12:55 Mostly Cloudy 84 29 70 21 62 62 S 10 17 30.22 1023 10 16.0934 0 0
1:15 pm 13:15 Mostly Cloudy 84 29 70 21 62 62 SE 12 19 30.21 1023 10 16.0934 0 0
1:35 pm 13:35 Mostly Cloudy 86 30 68 20 55 55 S 15 24 30.2 1023 10 16.0934 0 0
1:55 pm 13:55 Partly Cloudy 86 30 68 20 55 55 S 13 20 30.19 1022 10 16.0934 0 0
2:15 pm 14:15 Partly Cloudy 88 31 66 19 49 49 SSE 17 28 30.18 1022 10 16.0934 0 0
2:35 pm 14:35 Partly Cloudy 88 31 66 19 49 49 S 17 28 30.17 1022 10 16.0934 0 0
2:55 pm 14:55 Mostly Cloudy 88 31 64 18 46 46 S 17 28 30.16 1021 10 16.0934 0 0
3:15 pm 15:15 Mostly Cloudy 88 31 64 18 46 46 S 17 28 30.15 1021 10 16.0934 0 0
3:35 pm 15:35 Partly Cloudy 88 31 66 19 49 49 S 13 20 30.15 1021 10 16.0934 0 0
3:55 pm 15:55 Mostly Cloudy 88 31 68 20 52 52 SSE 14 22 30.15 1021 10 16.0934 0 0
4:15 pm 16:15 Mostly Cloudy 90 32 68 20 49 49 S 10 17 30.14 1020 10 16.0934 0 0
4:35 pm 16:35 Mostly Cloudy 88 31 68 20 52 52 SSE 15 24 30.14 1021 10 16.0934 0 0
4:55 pm 16:55 Mostly Cloudy 88 31 70 21 55 55 SSE 9 15 30.14 1021 10 16.0934 0 0
5:15 pm 17:15 Mostly Cloudy 88 31 70 21 55 55 S 10 17 30.14 1021 10 16.0934 0 0
5:35 pm 17:35 Mostly Cloudy 86 30 70 21 59 59 SSE 13 20 30.13 1020 10 16.0934 0 0
5:55 pm 17:55 Partly Cloudy 86 30 70 21 59 59 SSE 14 22 30.13 1020 10 16.0934 0 0
6:15 pm 18:15 Partly Cloudy 88 31 70 21 55 55 SSE 13 20 30.12 1020 10 16.0934 0 0
6:35 pm 18:35 Sunny 86 30 70 21 59 59 SE 12 19 30.13 1020 10 16.0934 0 0
6:55 pm 18:55 Sunny 86 30 72 22 62 62 SSE 12 19 30.13 1020 10 16.0934 0 0
7:15 pm 19:15 Sunny 84 29 72 22 66 66 SE 12 19 30.13 1020 10 16.0934 0 0
7:35 pm 19:35 Sunny 84 29 72 22 66 66 SSE 13 20 30.13 1020 10 16.0934 0 0
7:55 pm 19:55 Sunny 82 28 72 22 70 70 SSE 14 22 30.13 1020 10 16.0934 0 0
8:15 pm 20:15 Sunny 82 28 72 22 70 70 S 10 17 30.14 1021 10 16.0934 0 0
8:35 pm 20:35 Clear 81 27 72 22 74 74 SSE 12 19 30.14 1021 10 16.0934 0 0
8:55 pm 20:55 Clear 81 27 72 22 74 74 SSE 9 15 30.13 1020 10 16.0934 0 0
9:15 pm 21:15 Clear 81 27 72 22 74 74 S 16 26 30.14 1021 10 16.0934 0 0
9:35 pm 21:35 Clear 81 27 72 22 74 74 SSE 9 15 30.14 1021 10 16.0934 0 0
9:55 pm 21:55 Clear 79 26 72 22 79 79 SSE 10 17 30.14 1021 10 16.0934 0 0
10:15 pm 22:15 Clear 79 26 72 22 79 79 S 12 19 30.14 1021 10 16.0934 0 0
10:35 pm 22:35 Clear 79 26 72 22 79 79 SSE 8 13 30.15 1021 10 16.0934 0 0
10:55 pm 22:55 Clear 79 26 70 21 74 74 SSE 9 15 30.15 1021 10 16.0934 0 0
11:15 pm 23:15 Clear 79 26 72 22 79 79 S 9 15 30.15 1021 10 16.0934 0 0
11:35 pm 23:35 Clear 77 25 70 21 79 79 S 12 19 30.15 1021 10 16.0934 0 0
11:55 pm 23:55 Clear 77 25 70 21 79 79 SSE 14 22 30.15 1021 10 16.0934 0 0

Powered by AerisWeather